Simultaneous Nadir Overpasses (SNOs) Predictions

Prediction of SNOs between METOP-A and NOAA-19 Satellite Orbit:

Table of predicted SNOs for the next 14.0 days since TLE Epoch: 10/31/2015
Index Date (METOP-A) Time (METOP-A) Lat,Lon (METOP-A) SZA (METOP-A ) Date (NOAA-19) Time (NOAA-19) Lat,Lon (NOAA-19) SZA (NOAA-19 ) Distance(km) Time Diff (sec)
1 10/31/2015 04:00:36 75.47, 117.80 89.38 10/31/2015 03:59:55 75.49, 117.81 89.40 2.78 41
2 10/31/2015 04:51:17 -75.49, -74.79 90.59 10/31/2015 04:50:50 -75.48, -74.87 90.61 2.96 27
3 10/31/2015 05:41:58 75.44, 92.38 89.37 10/31/2015 05:41:57 75.47, 92.36 89.41 3.46 1
4 10/31/2015 06:32:39 -75.47,-100.21 90.59 10/31/2015 06:32:52 -75.46,-100.32 90.60 3.35 13
5 10/31/2015 07:23:20 75.42, 66.97 89.37 10/31/2015 07:23:58 75.41, 67.07 89.36 2.98 38
6 10/31/2015 08:14:00 -75.44,-125.62 90.59 10/31/2015 08:14:53 -75.44,-125.76 90.60 3.96 53
7 10/31/2015 09:04:45 75.20, 40.98 89.17 10/31/2015 09:05:56 75.25, 42.06 89.23 30.99 71
8 11/10/2015 14:52:00 -75.89, 136.24 87.02 11/10/2015 14:50:51 -75.93, 133.83 87.00 65.39 69
9 11/10/2015 15:42:47 75.54, -57.54 92.64 11/10/2015 15:41:47 75.51, -57.52 92.61 3.24 60
10 11/10/2015 16:33:29 -75.54, 109.78 87.36 11/10/2015 16:32:44 -75.50, 109.77 87.40 3.67 45
11 11/10/2015 17:24:09 75.51, -82.96 92.63 11/10/2015 17:23:49 75.49, -82.97 92.61 2.40 20
12 11/10/2015 18:14:51 -75.51, 84.36 87.37 11/10/2015 18:14:46 -75.48, 84.32 87.39 3.11 5
13 11/10/2015 19:05:31 75.49,-108.38
